Regional Weather Roundup
Issued by NWS

Home | Current Version | Previous Version | Text Only | Print | Product List | Glossary Off
Versions: 1 2 3 4 5 6 7 8 9 10 11 12 13 14 15 16 17 18 19 20 21 22 23 24 25 26 27 28 29 30 31 32 33 34 35 36 37 38 39 40 41 42 43 44 45 46 47 48 49 50

000
ASUS43 KLMK 250210
RWRKY
KENTUCKY REGIONAL WEATHER ROUNDUP
NATIONAL WEATHER SERVICE LOUISVILLE KY
1000 PM EDT FRI OCT 24 2014

NOTE "FAIR" INDICATES FEW OR NO CLOUDS BELOW 12,000 FEET
WITH NO SIGNIFICANT WEATHER AND/OR OBSTRUCTIONS TO VISIBILITY.

KYZ001>023-026-027-061>063-070>075-250300-
WESTERN AND SOUTH CENTRAL KENTUCKY

CITY           SKY/WX    TMP DP  RH WIND       PRES   REMARKS
PADUCAH        CLEAR     50  48  93 S6        30.05S
HENDERSON      PTCLDY   N/A N/A N/A CALM      30.05S
OWENSBORO      CLEAR     55  49  80 CALM      30.06S
HOPKINSVILLE   CLEAR     56  55  97 SW2       30.08S
BOWLING GREEN  CLEAR     53  48  83 CALM      30.08S
GLASGOW        CLEAR     49  45  86 CALM      30.08S
$$

KYZ024-025-028>034-038-045-046-053-250300-
NORTH CENTRAL KENTUCKY

CITY           SKY/WX    TMP DP  RH WIND       PRES   REMARKS
LOUISVILLE/SDF PTCLDY    55  46  71 S6        30.06R
LOUISVILLE/LOU CLEAR     52  46  80 CALM      30.06S
FORT KNOX      CLEAR     50  46  86 CALM      30.06R
$$

KYZ035>037-039>044-047>052-055>060-089>105-250300-
NORTHEAST KENTUCKY

CITY           SKY/WX    TMP DP  RH WIND       PRES   REMARKS
LEXINGTON      CLEAR     49  42  77 S3        30.07R
COVINGTON      CLEAR     49  41  74 S3        30.04F
FRANKFORT      CLEAR     47  41  80 CALM      30.06R
$$

KYZ054-064>069-076>088-106>120-250300-
SOUTHEAST KENTUCKY

CITY           SKY/WX    TMP DP  RH WIND       PRES   REMARKS
JACKSON        CLEAR     55  41  59 NW6       30.08R
LONDON         CLEAR     49  42  77 CALM      30.09R
SOMERSET       PTCLDY    45  45 100 CALM      30.10R
MIDDLESBORO    CLEAR     45  42  91 CALM      30.10R
MONTICELLO     CLEAR     43  41  93 CALM      30.11R FOG
$$




USA.gov is the U.S. government's official web portal to all federal, state and local government web resources and services.